Weather History for Northway, AK

Change the Weather History Date:

Tuesday, June 10, 2014

  Actual Average Record
Temperature  
Mean Temperature 52 °F -  
Max Temperature 64 °F 67 °F 78 °F (1988)
Min Temperature 39 °F 41 °F 33 °F (1987)
Degree Days  
Heating Degree Days 14    
Growing Degree Days 2 (Base 50)    
Moisture  
Dew Point 38 °F    
Average Humidity 59    
Maximum Humidity 97    
Minimum Humidity 36    
Precipitation  
Precipitation 0.00 in - - ()
Sea Level Pressure  
Sea Level Pressure 29.92 in    
Wind  
Wind Speed 2 mph (WNW)    
Max Wind Speed 12 mph    
Max Gust Speed 20 mph    
Visibility 10 miles    
Events Fog    
Averages and records for this station are not official NWS values.
T = Trace of Precipitation, MM = Missing Value Source: NWS Daily Summary

Daily Weather History Graph

Daily Weather History Graph

Search for Another Location

Airport:

Trip Planner

Search our weather history database for the weather conditions in past years. The results will help you decide how hot, cold, wet, or windy it might be!

Date:

Astronomy

Jun. 10, 2014 Rise Set
Actual Time 3:26 AM AKDT 11:29 PM AKDT
Civil Twilight 1:59 AM AKDT 12:54 AM AKDT
Nautical Twilight Sun does not rise Sun does not rise
Astronomical Twilight Sun does not rise Sun does not rise
Moon 7:59 PM AKDT (6/10) 2:55 AM AKDT (6/10)
Length of Visible Light 22h 55m
Length of Day
20h 02m
Waxing Gibbous, 93% of the Moon is Illuminated
Jun 10
Waxing Gibbous
Jun 12
Full
Jun 19
Last Quarter
Jun 27
New
Jul 5
First Quarter

Hourly Weather History & Observations

Time (AKDT) Temp. Dew Point Humidity Pressure Visibility Wind Dir Wind Speed Gust Speed Precip Events Conditions
12:53 AM 43.0 °F 41.0 °F 93% 29.92 in 10.0 mi Calm Calm - N/A   Scattered Clouds
1:53 AM 41.0 °F 39.9 °F 96% 29.94 in 10.0 mi Calm Calm - N/A Fog Patches of Fog
2:53 AM 39.9 °F 39.0 °F 97% 29.94 in 10.0 mi Calm Calm - N/A Fog Patches of Fog
3:53 AM 41.0 °F 39.0 °F 93% 29.94 in 10.0 mi Calm Calm - N/A Fog Patches of Fog
4:53 AM 42.1 °F 39.9 °F 92% 29.95 in 10.0 mi Calm Calm - N/A Fog Patches of Fog
5:53 AM 43.0 °F 42.1 °F 97% 29.95 in 10.0 mi Calm Calm - N/A   Scattered Clouds
6:53 AM 48.9 °F 43.0 °F 80% 29.95 in - ENE 3.5 mph - N/A   Partly Cloudy
7:53 AM 52.0 °F 42.1 °F 69% 29.95 in 10.0 mi NNE 3.5 mph - N/A   Mostly Cloudy
8:53 AM 55.0 °F 37.9 °F 53% 29.94 in 10.0 mi ENE 3.5 mph - N/A   Overcast
9:53 AM 55.9 °F 36.0 °F 47% 29.94 in 10.0 mi Calm Calm - N/A   Scattered Clouds
10:53 AM 59.0 °F 36.0 °F 42% 29.94 in 10.0 mi Calm Calm - N/A   Scattered Clouds
11:53 AM 60.8 °F 35.6 °F 39% 29.92 in 10.0 mi Calm Calm - N/A   Scattered Clouds
1:53 PM 57.0 °F 39.9 °F 53% 29.96 in 10.0 mi WSW 11.5 mph 19.6 mph N/A   Mostly Cloudy
2:53 PM 62.6 °F 37.4 °F 39% 29.91 in 10.0 mi Variable 4.6 mph - N/A   Scattered Clouds
3:53 PM 63.0 °F 37.0 °F 38% 29.92 in 10.0 mi Variable 3.5 mph - N/A   Scattered Clouds
4:53 PM 62.1 °F 36.0 °F 38% 29.91 in 10.0 mi WSW 8.1 mph - N/A   Mostly Cloudy
5:53 PM 64.9 °F 37.9 °F 37% 29.89 in 10.0 mi West 10.4 mph 17.3 mph N/A   Mostly Cloudy
6:53 PM 62.1 °F 36.0 °F 38% 29.88 in 10.0 mi WSW 6.9 mph - N/A   Mostly Cloudy
7:53 PM 61.0 °F 37.0 °F 41% 29.88 in 10.0 mi Calm Calm - N/A   Clear
8:53 PM 61.0 °F 34.0 °F 36% 29.88 in 10.0 mi Variable 4.6 mph - N/A   Overcast
9:53 PM 57.9 °F 34.0 °F 41% 29.90 in 10.0 mi Variable 6.9 mph - N/A   Mostly Cloudy
10:53 PM 55.9 °F 33.1 °F 42% 29.91 in 10.0 mi Variable 3.5 mph - N/A   Mostly Cloudy
11:53 PM 53.1 °F 34.0 °F 48% 29.94 in 10.0 mi Variable 5.8 mph - N/A   Mostly Cloudy